Terminal Aerodrome Forecast
Issued by NWS Dodge City, KS

Home | Current Version | Previous Version | Graphics & Text | Print | Product List | Glossary Off
Versions: 1 2 3 4 5 6 7 8 9 10 11 12 13 14 15 16 17 18 19 20 21 22 23 24 25 26

000
FTUS43 KDDC 090520
TAFDDC
TAF
KDDC 090520Z 0906/1006 VRB05KT P6SM OVC060
     FM091200 15012KT P6SM OVC040
     FM091600 17016G24KT P6SM BKN025
     FM091800 18018G26KT P6SM BKN035
     FM092300 16012KT P6SM SCT150=

USA.gov is the U.S. government's official web portal to all federal, state and local government web resources and services.